Location: Ellingshausen
(50.5460°N, 10.4723°E)
Time: 23:22:44
(UTC+00:00)

TIMED - Pass Details

Date: 18 January 2026
Orbit: 581 x 584 km, 74.1° (Epoch: 9 February)

Event Time Altitude Azimuth Distance (km) Brightness Sun altitude
Exits shadow 04:44:41 74° 322° (NW) 611 4.3 -22.6°
Drops below altitude 10° 04:48:47 10° 21° (NNE) 1,913 7.2 -21.9°
Sets 04:51:01 0° 24° (NNE) 2,818 8.2 -21.6°
